This is the latest recevied weather packets stored in our database for station/object YN3ZBQ-13. If no packets are shown the sender has not sent any weather packets the latest 10 day(s).
| Time | Temp. | Humidity | Pressure | Rain* | Wind** | Luminosity | Snow |
|---|---|---|---|---|---|---|---|
| 1778419114 | 27.78° C | 89% | 1011 hPa | 0 mm | - | - | - |
| 1778418514 | 25.56° C | 93% | 1011 hPa | 0 mm | - | - | - |
| 1778417913 | 25.56° C | 94% | 1011 hPa | 0 mm | - | - | - |
| 1778417313 | 25.56° C | 94% | 1011 hPa | 0 mm | - | - | - |
| 1778416713 | 25° C | 94% | 1011 hPa | 0 mm | - | - | - |
| 1778416112 | 25.56° C | 94% | 1010 hPa | 0 mm | - | - | - |
| 1778415512 | 23.33° C | 78% | 1010 hPa | 0 mm | - | - | - |
| 1778414912 | 23.89° C | 78% | 1010 hPa | 0 mm | - | - | - |
| 1778414312 | 23.33° C | 78% | 1010 hPa | 0 mm | - | - | - |
| 1778413711 | 23.89° C | 78% | 1010 hPa | 0 mm | - | - | - |
| 1778413111 | 22.78° C | 80% | 1010 hPa | 0 mm | - | - | - |
| 1778412510 | 22.78° C | 80% | 1010 hPa | 0 mm | - | - | - |
| 1778411910 | 22.78° C | 80% | 1010 hPa | 0 mm | - | - | - |
| 1778411310 | 22.78° C | 80% | 1010 hPa | 0 mm | - | - | - |
| 1778410710 | 22.78° C | 80% | 1010 hPa | 0 mm | - | - | - |
| 1778410109 | 22.78° C | 80% | 1010 hPa | 0 mm | - | - | - |
| 1778409509 | 22.78° C | 80% | 1010 hPa | 0 mm | - | - | - |
| 1778408908 | 22.78° C | 79% | 1009 hPa | 0 mm | - | - | - |
| 1778408308 | 23.33° C | 79% | 1009 hPa | 0 mm | - | - | - |
| 1778407708 | 23.89° C | 79% | 1009 hPa | 0 mm | - | - | - |
| 1778407107 | 22.78° C | 79% | 1009 hPa | 0 mm | - | - | - |
| 1778406507 | 23.33° C | 79% | 1009 hPa | 0 mm | - | - | - |
| 1778405907 | 23.89° C | 79% | 1009 hPa | 0 mm | - | - | - |
| 1778405307 | 23.33° C | 78% | 1009 hPa | 0 mm | - | - | - |
| 1778404706 | 23.89° C | 78% | 1009 hPa | 0 mm | - | - | - |
* Rain latest hour (hover to see other rain measurements)
** Current wind speed in m/s (hover to see current wind gust speed)